Location: Alladorf
(49.9620°N, 11.3790°E)
Time: 19:14:24
(UTC+00:00)

Cosmos 1943 - Pass Details

Date: 29 November 2020
Orbit: 832 x 851 km, 71.0° (Epoch: 24 January)

Event Time Altitude Azimuth Distance (km) Brightness Sun altitude
Exits shadow 03:36:43 32° 169° (S) 1,417 4.4 -30.0°
Drops below altitude 10° 03:39:41 10° 162° (SSE) 2,472 5.8 -29.6°
Sets 03:42:07 0° 161° (SSE) 3,402 6.6 -29.2°
